Tracking 29892 objects as of 21-Nov-2024
HD Live streaming from Space Station
objects crossing your sky now

COSMOS 841

Track COSMOS 841 now!
10-day predictions
COSMOS 841 is classified as:


NORAD ID: 9022
Int'l Code: 1976-069A
Perigee: 768.6 km
Apogee: 785.9 km
Inclination: 74.0 °
Period: 100.2 minutes
Semi major axis: 7148 km
RCS: 2.1872 m2 (large)
Launch date: July 15, 1976
Source: Commonwealth of Independent States (former USSR) (CIS)
Launch site: PLESETSK MISSILE AND SPACE COMPLEX (PKMTR)
Your satellite tracking list
Your tracking list is empty




NASA's NSSDC Master Catalog

Two Line Element Set (TLE):
1 09022U 76069A   24325.82072631  .00000392  00000-0  14251-3 0  9996
2 09022  74.0425 274.3056 0012051 142.7569 217.4422 14.36489667530034
Source of the keplerian elements: AFSPC